Flight Information

DEPARTURE
MEDFORD, OR
Elevation:
1335
Runways:
14/32 - 8800x150 - ASPH-G
ATIS:
127.25
Ground:
121.8
Tower:
MEDFORD TOWER 119.4
DESTINATION
,
Elevation:
TPA:
1000 (est.)


6818.1 NM66° True-18° Var48° HDG

Flight Plan:
(click to file on line)

1. Type
2. Aircraft Identification
3. Aircraft Type / Special Equipment
4. True Airspeed
kts
5. Departure Airport
(ICAO code)
6. Arriving Airport
(ICAO code)
7. Cruising Altitude
ft
8. Alternate Airport
(ICAO code)
9. Route of Flight
10. Remarks


00:00:00 Departure ATIS: Destination ATIS:

Clearance Limit:
Route:
Altitude: Expect in minutes
Frequency:
Transponder: (7500 Hijack / 7600 Lost Comms / 7700 Emergency)


KMFR 221453Z 17004KT 10SM BKN055 OVC070 03/00 A2989 RMK AO2 RAE1358 SLP127 P0000 60000 T00280000 50004
Time: 2021-01-22T14:53:00Z
1611329402
Winds: 170 @ 4 kts
Visibility: 10.0 sm
Clouds (AGL): BKN 5500
OVC 7000
Temperature: 2.8 C
Dew Point: 0.0 C
Pressure: 29.890747 in Hgbr


Notes:

Data extracted from FAA Digital Chart Supplement. Effective: 0901Z Thursday, Dec 31, 2020 to 0901Z Thursday, Jan 28, 2021
Current ATIS data is provided courtisy of PilotEdge.